Location: State Camp
(41.2367°N, 77.7828°W)
Time: 05:09:49
(UTC-05:00)

Amateur Radio Satellites - All Passes

Search period start: 19 December 2014 04:39
Search period end: 20 December 2014 04:39
Location: State Camp, 41.2367°N, 77.7828°W

Satellite Date Start Highest point End Downlink Frequencies (MHz)
Time Altitude Azimuth
CUBESAT XI-V 19 Dec 04:50:28 04:53:00 15° 63° (ENE) 04:55:31 437.345
PRISM 19 Dec 04:55:48 04:59:34 32° 70° (ENE) 05:03:21 437.425
MOZHAYETS 4 19 Dec 05:07:58 05:12:03 30° 264° (W) 05:16:09
GONETS M04 19 Dec 05:30:43 05:39:18 59° 91° (E) 05:47:54
Cubesat XI-IV 19 Dec 05:38:02 05:42:14 23° 94° (E) 05:46:25 437.490
AO-7 19 Dec 05:50:19 05:58:00 42° 299° (WNW) 06:05:40 29.400- 29.500
STRAND 1 19 Dec 05:52:41 05:57:40 56° 72° (ENE) 06:02:40 437.568
VERMONT LUNAR 19 Dec 06:06:36 06:10:08 81° 179° (S) 06:13:40 437.305
CUTE-I 19 Dec 06:11:10 06:16:17 46° 99° (E) 06:21:23 437.470
PHONESAT 2.4 19 Dec 06:11:50 06:15:28 79° 175° (S) 06:19:06 2401.200-2431.200
SO-50 19 Dec 06:12:41 06:17:34 70° 55° (NE) 06:22:28 436.795
JAS-2 19 Dec 06:21:33 06:26:40 34° 294° (WNW) 06:31:24 435.910
CUBESAT XI-V 19 Dec 06:25:17 06:29:55 62° 259° (W) 06:34:33 437.345
PRISM 19 Dec 06:31:53 06:35:08 21° 265° (W) 06:38:24 437.425
Cubesat XI-IV 19 Dec 07:17:28 07:22:29 44° 290° (WNW) 07:27:30 437.490
HO-68 19 Dec 07:26:03 07:27:27 11° 86° (E) 07:28:50 435.675
GONETS M04 19 Dec 07:28:58 07:36:35 32° 291° (WNW) 07:44:14
STRAND 1 19 Dec 07:33:52 07:37:11 17° 268° (W) 07:40:31 437.568
VERMONT LUNAR 19 Dec 07:44:56 07:48:23 52° 196° (SSW) 07:51:50 437.305
PHONESAT 2.4 19 Dec 07:50:31 07:54:07 63° 192° (SSW) 07:57:43 2401.200-2431.200
CUTE-I 19 Dec 07:51:56 07:56:03 23° 296° (WNW) 08:00:09 437.470
SO-50 19 Dec 07:54:54 07:57:33 15° 252° (WSW) 08:00:13 436.795
BRITE-PL 19 Dec 08:26:28 08:30:37 31° 97° (E) 08:35:02 437.365/2234.400
CINEMA 3 19 Dec 08:36:25 08:38:23 12° 90° (E) 08:40:23 145.822/145.860
ANTELSAT 19 Dec 08:42:54 08:44:48 13° 61° (ENE) 08:46:43 437.575/2403.000
AAUSAT CUBESAT 2 19 Dec 08:47:35 08:51:12 27° 95° (E) 08:54:48 437.432
CANX-2 19 Dec 08:54:49 08:59:06 57° 100° (E) 09:03:20 2200.000
NANOSAT C BR1 19 Dec 08:57:00 08:57:53 11° 61° (ENE) 08:58:46 145.865
DANDE 19 Dec 08:57:46 08:59:06 12° 80° (E) 09:00:33 436.750
GOMX 1 19 Dec 09:01:11 09:05:47 50° 100° (E) 09:10:41 467.674
HO-68 19 Dec 09:09:10 09:16:20 71° 104° (ESE) 09:23:26 435.675
QB50P1 19 Dec 09:09:28 09:11:50 15° 64° (ENE) 09:14:13 145.935-145.965
UWE-3 19 Dec 09:11:46 09:14:24 15° 91° (E) 09:17:03 435.000/436.395/437.385
FUNcube-1 19 Dec 09:15:33 09:17:45 13° 91° (E) 09:19:57 145.935
TIGRISAT 19 Dec 09:17:23 09:21:03 27° 68° (ENE) 09:24:49 435.000
COMPASS 1 19 Dec 09:21:16 09:25:33 76° 102° (ESE) 09:29:47 437.405
VERMONT LUNAR 19 Dec 09:24:00 09:26:16 16° 211° (SSW) 09:28:32 437.305
SEEDS 19 Dec 09:24:35 09:28:54 84° 284° (WNW) 09:33:10 437.485
CUTE 1.7 + AOD 2 19 Dec 09:25:52 09:30:11 70° 285° (WNW) 09:34:28 437.475
PHONESAT 2.4 19 Dec 09:29:36 09:32:27 22° 208° (SSW) 09:35:19 2401.200-2431.200
DX 1 19 Dec 09:31:36 09:35:26 30° 97° (E) 09:39:16 434.975-435.025
DOVE 4 19 Dec 09:34:01 09:38:46 81° 102° (ESE) 09:43:48 437.250
POPSAT HIP 1 19 Dec 09:36:30 09:40:06 28° 69° (ENE) 09:43:43 437.405
MaSat-1 19 Dec 09:42:19 09:44:20 25° 300° (WNW) 09:46:18 437.345
UNISAT 6 19 Dec 09:44:59 09:49:13 55° 73° (ENE) 09:53:36 437.425
YUBILEINY 19 Dec 09:47:06 09:53:49 24° 65° (ENE) 10:00:29 435.215
DELFI C3 19 Dec 09:47:35 09:51:38 52° 100° (E) 09:55:39 145.870
50 SAT 19 Dec 09:51:23 09:53:33 14° 91° (E) 09:55:44 437.505
CUSAT 1 19 Dec 09:53:52 09:57:18 80° 98° (E) 10:01:56 437.405
Oscar 11 19 Dec 09:56:35 10:00:59 80° 102° (ESE) 10:05:20 145.826/435.025
HUMSAT D 19 Dec 10:00:09 10:03:37 23° 94° (E) 10:07:04 437.325/437.525
UKube-1 19 Dec 10:04:05 10:08:25 68° 102° (ESE) 10:12:43 .
DUCHIFAT 1 19 Dec 10:04:44 10:08:51 58° 74° (ENE) 10:13:00 145.980
BRITE-PL 19 Dec 10:05:06 10:09:03 28° 290° (WNW) 10:13:16 437.365/2234.400
CUBEBUG 2 19 Dec 10:05:07 10:09:43 64° 101° (E) 10:14:25 437.445
CINEMA 3 19 Dec 10:11:17 10:15:58 70° 285° (WNW) 10:20:50 145.822/145.860
BUGSAT 1 19 Dec 10:11:32 10:15:33 56° 74° (ENE) 10:19:33 437.445
ANTELSAT 19 Dec 10:16:41 10:21:00 66° 259° (W) 10:25:27 437.575/2403.000
QB50P2 19 Dec 10:17:01 10:21:14 83° 76° (ENE) 10:25:28 145.880/145.840
ESTCUBE 1 19 Dec 10:17:46 10:19:52 13° 91° (E) 10:21:57 437.505/2401.250
VELOX 1 19 Dec 10:19:27 10:23:28 33° 97° (E) 10:27:28 145.980
ZACube-1 19 Dec 10:22:40 10:27:12 72° 102° (ESE) 10:31:46 437.345
AAUSAT CUBESAT 2 19 Dec 10:23:16 10:26:47 26° 291° (WNW) 10:30:17 437.432
POLYITAN 1 19 Dec 10:25:18 10:29:30 79° 257° (WSW) 10:33:44 437.675
NANOSAT C BR1 19 Dec 10:28:57 10:33:09 73° 258° (WSW) 10:37:22 145.865
CANX-2 19 Dec 10:32:22 10:34:33 14° 297° (WNW) 10:36:43 2200.000
DANDE 19 Dec 10:38:38 10:41:47 35° 289° (WNW) 10:45:53 436.750
GOMX 1 19 Dec 10:40:21 10:43:35 19° 294° (WNW) 10:46:57 467.674
QB50P1 19 Dec 10:43:14 10:47:19 49° 260° (W) 10:51:25 145.935-145.965
UWE-3 19 Dec 10:46:45 10:51:13 54° 287° (WNW) 10:55:45 435.000/436.395/437.385
FUNcube-1 19 Dec 10:49:59 10:54:26 59° 286° (WNW) 10:58:56 145.935
O/OREOS (USA 219) 19 Dec 10:52:26 10:56:58 82° 68° (ENE) 11:01:30 437.305
TIGRISAT 19 Dec 10:54:06 10:57:45 26° 265° (W) 11:01:30 435.000
HO-68 19 Dec 10:57:58 11:03:23 24° 302° (WNW) 11:08:46 435.675
COMPASS 1 19 Dec 10:59:50 11:00:38 10° 298° (WNW) 11:01:25 437.405
AISAT 19 Dec 11:01:27 11:05:54 82° 284° (WNW) 11:10:20 437.250
DX 1 19 Dec 11:08:03 11:11:33 24° 293° (WNW) 11:15:02 434.975-435.025
POPSAT HIP 1 19 Dec 11:12:35 11:15:59 24° 265° (W) 11:19:24 437.405
CUBEBUG 1 19 Dec 11:13:10 11:17:22 49° 100° (E) 11:21:34 437.445
DOVE 4 19 Dec 11:14:09 11:15:58 12° 298° (WNW) 11:17:49 437.250
RS-15 19 Dec 11:16:34 11:26:35 44° 109° (ESE) 11:36:34 29.354- 29.394
UNISAT 6 19 Dec 11:24:19 11:26:24 13° 270° (W) 11:28:31 437.425
DELFI C3 19 Dec 11:24:24 11:26:27 14° 296° (WNW) 11:28:31 145.870
50 SAT 19 Dec 11:25:02 11:29:02 47° 287° (WNW) 11:33:02 437.505
HUMSAT D 19 Dec 11:35:36 11:39:25 31° 290° (WNW) 11:43:15 437.325/437.525
Oscar 11 19 Dec 11:35:48 11:36:29 10° 299° (WNW) 11:37:10 145.826/435.025
UKube-1 19 Dec 11:42:23 11:44:00 12° 299° (WNW) 11:45:37 .
YUBILEINY 19 Dec 11:42:49 11:51:29 74° 266° (W) 12:00:08 435.215
CUBEBUG 2 19 Dec 11:43:29 11:45:55 14° 297° (WNW) 11:48:23 437.445
DUCHIFAT 1 19 Dec 11:43:40 11:45:05 11° 270° (W) 11:46:30 145.980
BUGSAT 1 19 Dec 11:50:02 11:51:22 11° 269° (W) 11:52:43 437.445
ESTCUBE 1 19 Dec 11:52:41 11:57:06 58° 287° (WNW) 12:01:30 437.505/2401.250
VELOX 1 19 Dec 11:56:24 11:59:51 23° 293° (WNW) 12:03:18 145.980
ZACube-1 19 Dec 12:01:07 12:02:59 12° 298° (WNW) 12:04:52 437.345
Oscar 19 19 Dec 12:22:48 12:27:41 46° 70° (ENE) 12:32:36 437.125/150
Gurwin Techsat 1B 19 Dec 12:25:19 12:27:18 12° 58° (ENE) 12:29:17 435.225
SPROUT 19 Dec 12:27:04 12:31:23 76° 102° (ESE) 12:35:41 437.525
TISAT 1 19 Dec 12:28:38 12:32:53 85° 103° (ESE) 12:37:06 437.305
SWISSCUBE 19 Dec 12:35:41 12:38:35 16° 92° (E) 12:41:29 437.505
ITUPSAT 1 19 Dec 12:35:49 12:38:24 14° 91° (E) 12:40:57 437.325
ITAMSAT 1 19 Dec 12:36:16 12:40:22 24° 65° (ENE) 12:44:28 435.822/435.867
BEESAT 3 19 Dec 12:38:20 12:40:41 15° 109° (ESE) 12:43:03 437.485
CUBEBUG 1 19 Dec 12:50:45 12:53:21 16° 296° (WNW) 12:55:56 437.445
BEESAT 19 Dec 13:00:08 13:04:08 26° 95° (E) 13:08:07 436.000
ISS 19 Dec 13:08:56 13:10:59 15° 131° (SE) 13:13:01 145.825
AO-7 19 Dec 13:09:04 13:13:04 15° 45° (NE) 13:17:04 29.400- 29.500
BEESAT 2 19 Dec 13:15:18 13:18:59 33° 115° (ESE) 13:22:45 435.950
HORYU 2 19 Dec 13:20:48 13:22:49 13° 61° (ENE) 13:24:50 437.375
RS-15 19 Dec 13:27:56 13:38:36 57° 312° (NW) 13:49:25 29.354- 29.394
M-CUBED/EXP-1 PRIME 19 Dec 13:30:42 13:33:48 19° 96° (E) 13:36:43 437.505
YUBILEINY 19 Dec 13:43:07 13:46:39 13° 286° (WNW) 13:50:11 435.215
PCSat 19 Dec 14:00:59 14:06:19 66° 116° (ESE) 14:11:43 145.827
Gurwin Techsat 1B 19 Dec 14:01:08 14:06:26 87° 75° (ENE) 14:11:47 435.225
Oscar 19 19 Dec 14:03:23 14:07:14 21° 267° (W) 14:11:07 437.125/150
SPROUT 19 Dec 14:05:57 14:06:51 11° 299° (WNW) 14:07:45 437.525
ITUPSAT 1 19 Dec 14:11:58 14:16:40 59° 287° (WNW) 14:21:20 437.325
SWISSCUBE 19 Dec 14:12:07 14:16:46 53° 288° (WNW) 14:21:22 437.505
AIST 2 19 Dec 14:13:04 14:17:15 65° 119° (ESE) 14:21:31 435.215
BEESAT 3 19 Dec 14:14:25 14:18:25 51° 306° (NW) 14:22:30 437.485
ITAMSAT 1 19 Dec 14:14:41 14:19:36 42° 261° (W) 14:24:31 435.822/435.867
STARS 19 Dec 14:25:48 14:29:37 28° 96° (E) 14:33:26 437.465
KKS-1 19 Dec 14:26:11 14:30:26 42° 99° (E) 14:34:41 437.445
BEESAT 19 Dec 14:37:45 14:41:59 33° 292° (WNW) 14:46:12 436.000
AUBIESAT-1 19 Dec 14:40:02 14:44:27 79° 290° (WNW) 14:48:27 437.475
ISS 19 Dec 14:43:58 14:47:14 60° 327° (NNW) 14:50:30 145.825
JAS-2 19 Dec 14:48:44 14:53:45 20° 60° (ENE) 14:58:29 435.910
BEESAT 2 19 Dec 14:53:49 14:57:17 25° 313° (NW) 15:00:48 435.950
HORYU 2 19 Dec 14:54:29 14:58:54 67° 258° (WSW) 15:03:24 437.375
AO-7 19 Dec 14:56:02 15:04:10 61° 66° (ENE) 15:12:21 29.400- 29.500
M-CUBED/EXP-1 PRIME 19 Dec 15:04:53 15:09:01 38° 295° (WNW) 15:12:49 437.505
GONETS M04 19 Dec 15:41:31 15:48:51 29° 68° (ENE) 15:56:06
Gurwin Techsat 1B 19 Dec 15:45:37 15:47:04 11° 272° (W) 15:48:31 435.225
RS-15 19 Dec 15:45:53 15:54:08 23° 342° (NNW) 16:02:33 29.354- 29.394
PCSat 19 Dec 15:46:08 15:50:13 21° 315° (NW) 15:54:20 145.827
AIST 2 19 Dec 15:53:31 15:56:18 17° 318° (NW) 15:59:07 435.215
CUTE-I 19 Dec 15:58:10 15:59:13 11° 57° (ENE) 16:00:16 437.470
STARS 19 Dec 16:02:17 16:06:01 27° 292° (WNW) 16:09:46 437.465
KKS-1 19 Dec 16:03:37 16:06:46 19° 295° (WNW) 16:09:55 437.445
AIST 1 19 Dec 16:14:48 16:18:52 39° 92° (E) 16:22:56
ISS 19 Dec 16:22:04 16:24:20 17° 346° (NNW) 16:26:36 145.825
JAS-2 19 Dec 16:30:17 16:38:02 88° 256° (WSW) 16:45:09 435.910
AO-7 19 Dec 16:50:21 16:57:22 30° 264° (W) 17:04:28 29.400- 29.500
Cubesat XI-IV 19 Dec 16:59:54 17:04:49 39° 69° (ENE) 17:09:44 437.490
MOZHAYETS 4 19 Dec 17:02:36 17:07:14 65° 101° (E) 17:11:47
CUTE-I 19 Dec 17:33:03 17:38:22 77° 74° (ENE) 17:43:42 437.470
GONETS M04 19 Dec 17:37:40 17:46:17 63° 268° (W) 17:54:47
MaSat-1 19 Dec 17:40:53 17:41:42 11° 56° (NE) 17:42:30 437.345
AIST 1 19 Dec 17:53:41 17:56:41 18° 289° (WNW) 17:59:41
HO-68 19 Dec 17:57:15 17:58:10 10° 47° (NE) 17:59:05 435.675
ISS 19 Dec 18:00:03 18:01:55 14° 6° (N) 18:03:46 145.825
RS-15 19 Dec 18:03:26 18:11:55 24° 19° (NNE) 18:20:36 29.354- 29.394
STRAND 1 19 Dec 18:04:16 18:07:47 19° 92° (E) 18:11:17 437.568
PRISM 19 Dec 18:14:00 18:18:05 53° 100° (E) 18:22:06 437.425
JAS-2 19 Dec 18:19:13 18:23:41 16° 271° (W) 18:28:00 435.910
CUBESAT XI-V 19 Dec 18:22:28 18:26:36 32° 96° (E) 18:30:42 437.345
Cubesat XI-IV 19 Dec 18:40:32 18:44:59 27° 265° (W) 18:49:27 437.490
MOZHAYETS 4 19 Dec 18:41:33 18:43:53 14° 298° (WNW) 18:46:13
CUSAT 1 19 Dec 18:49:38 18:54:04 16° 63° (ENE) 18:58:46 437.405
MaSat-1 19 Dec 19:13:12 19:15:02 19° 250° (WSW) 19:16:56 437.345
CUTE-I 19 Dec 19:16:35 19:19:00 13° 270° (W) 19:21:25 437.470
DANDE 19 Dec 19:34:24 19:40:46 29° 70° (ENE) 19:47:52 436.750
ISS 19 Dec 19:36:16 19:39:16 32° 26° (NNE) 19:42:15 145.825
HO-68 19 Dec 19:37:22 19:44:16 53° 67° (ENE) 19:51:12 435.675
BRITE-PL 19 Dec 19:38:27 19:42:08 31° 70° (ENE) 19:45:47 437.365/2234.400
AAUSAT CUBESAT 2 19 Dec 19:39:34 19:42:37 20° 66° (ENE) 19:45:40 437.432
GONETS M04 19 Dec 19:40:20 19:41:09 10° 288° (WNW) 19:41:58
STRAND 1 19 Dec 19:42:19 19:47:15 52° 289° (WNW) 19:52:10 437.568
CANX-2 19 Dec 19:48:01 19:52:00 40° 72° (ENE) 19:56:02 2200.000
PRISM 19 Dec 19:51:03 19:53:09 14° 297° (WNW) 19:55:15 437.425
CUBESAT XI-V 19 Dec 20:00:09 20:03:54 25° 293° (WNW) 20:07:38 437.345
GOMX 1 19 Dec 20:10:17 20:14:17 49° 73° (ENE) 20:18:18 467.674
UWE-3 19 Dec 20:10:54 20:12:24 12° 62° (ENE) 20:13:55 435.000/436.395/437.385
COMPASS 1 19 Dec 20:12:51 20:16:56 51° 73° (ENE) 20:21:03 437.405
FUNcube-1 19 Dec 20:13:53 20:14:31 10° 61° (ENE) 20:15:10 145.935
RS-15 19 Dec 20:16:24 20:27:27 58° 49° (NE) 20:38:56 29.354- 29.394
SEEDS 19 Dec 20:16:45 20:20:57 68° 75° (ENE) 20:25:13 437.485
CUTE 1.7 + AOD 2 19 Dec 20:18:41 20:22:56 83° 76° (ENE) 20:27:15 437.475
DX 1 19 Dec 20:27:34 20:31:14 27° 68° (ENE) 20:34:55 434.975-435.025
SO-50 19 Dec 20:28:32 20:31:58 22° 111° (ESE) 20:35:30 436.795
CUSAT 1 19 Dec 20:30:30 20:38:09 73° 79° (E) 20:46:41 437.405
DELFI C3 19 Dec 20:36:20 20:40:02 33° 71° (ENE) 20:43:46 145.870
DOVE 4 19 Dec 20:40:31 20:44:38 80° 76° (ENE) 20:48:50 437.250
Oscar 11 19 Dec 20:51:16 20:55:32 61° 74° (ENE) 20:59:50 145.826/435.025
HUMSAT D 19 Dec 20:53:29 20:56:08 17° 65° (ENE) 20:58:49 437.325/437.525
BEESAT 3 19 Dec 20:57:26 20:59:32 13° 40° (NE) 21:01:36 437.485
UKube-1 19 Dec 20:59:08 21:03:23 58° 73° (ENE) 21:07:39 .
CUBEBUG 2 19 Dec 21:03:58 21:07:59 51° 73° (ENE) 21:12:08 437.445
PCSat 19 Dec 21:08:20 21:09:33 11° 35° (NE) 21:10:45 145.827
ISS 19 Dec 21:12:51 21:15:50 33° 223° (SW) 21:18:48 145.825
CINEMA 3 19 Dec 21:13:39 21:17:47 74° 258° (WSW) 21:22:02 145.822/145.860
AAUSAT CUBESAT 2 19 Dec 21:14:09 21:18:01 36° 263° (W) 21:21:56 437.432
DANDE 19 Dec 21:17:04 21:24:36 68° 264° (W) 21:33:11 436.750
VELOX 1 19 Dec 21:17:34 21:21:27 31° 69° (ENE) 21:25:21 145.980
BRITE-PL 19 Dec 21:17:37 21:20:44 20° 266° (W) 21:23:50 437.365/2234.400
ESTCUBE 1 19 Dec 21:18:09 21:20:24 14° 62° (ENE) 21:22:40 437.505/2401.250
ZACube-1 19 Dec 21:19:05 21:23:09 54° 74° (ENE) 21:27:19 437.345
CANX-2 19 Dec 21:25:19 21:28:07 17° 268° (W) 21:30:57 2200.000
HO-68 19 Dec 21:26:07 21:32:13 30° 265° (W) 21:38:23 435.675
BEESAT 2 19 Dec 21:35:25 21:38:52 24° 47° (NE) 21:42:18 435.950
UNISAT 6 19 Dec 21:38:56 21:41:03 13° 90° (E) 21:43:11 437.425
UWE-3 19 Dec 21:44:14 21:48:22 64° 259° (W) 21:52:37 435.000/436.395/437.385
FUNcube-1 19 Dec 21:46:04 21:50:13 74° 258° (WSW) 21:54:29 145.935
COMPASS 1 19 Dec 21:50:52 21:52:57 13° 269° (W) 21:55:03 437.405
GOMX 1 19 Dec 21:50:55 21:52:45 13° 269° (W) 21:54:35 467.674
SEEDS 19 Dec 21:57:13 21:57:14 10° 271° (W) 21:57:16 437.485
AISAT 19 Dec 21:59:32 22:03:57 90° 256° (WSW) 22:08:24 437.250
DX 1 19 Dec 22:03:45 22:07:25 26° 264° (W) 22:11:06 434.975-435.025
QB50P2 19 Dec 22:04:20 22:06:33 14° 91° (E) 22:08:46 145.880/145.840
SO-50 19 Dec 22:07:52 22:12:12 43° 309° (NW) 22:16:42 436.795
ANTELSAT 19 Dec 22:09:12 22:13:13 27° 95° (E) 22:17:13 437.575/2403.000
CUBEBUG 1 19 Dec 22:09:33 22:13:39 41° 71° (ENE) 22:17:45 437.445
POLYITAN 1 19 Dec 22:12:16 22:15:07 17° 93° (E) 22:17:58 437.675
DELFI C3 19 Dec 22:12:24 22:15:23 19° 267° (W) 22:18:23 145.870
50 SAT 19 Dec 22:13:08 22:17:08 76° 258° (WSW) 22:21:12 437.505
CUSAT 1 19 Dec 22:14:41 22:20:45 26° 274° (W) 22:27:16 437.405
NANOSAT C BR1 19 Dec 22:15:19 22:18:16 18° 93° (E) 22:21:13 145.865
HUMSAT D 19 Dec 22:27:42 22:31:36 41° 262° (W) 22:35:34 437.325/437.525
QB50P1 19 Dec 22:29:02 22:32:37 26° 96° (E) 22:36:11 145.935-145.965
RS-15 19 Dec 22:29:09 22:39:35 45° 251° (WSW) 22:50:27 29.354- 29.394
Oscar 11 19 Dec 22:30:33 22:32:06 12° 270° (W) 22:33:39 145.826/435.025
BEESAT 3 19 Dec 22:34:06 22:38:18 84° 238° (WSW) 22:42:25 437.485
AIST 2 19 Dec 22:35:13 22:39:20 43° 52° (NE) 22:43:23 435.215
UKube-1 19 Dec 22:38:07 22:39:54 12° 269° (W) 22:41:41 .
CUBEBUG 2 19 Dec 22:43:06 22:45:03 13° 270° (W) 22:47:01 437.445
TIGRISAT 19 Dec 22:44:54 22:49:34 62° 101° (E) 22:54:15 435.000
YUBILEINY 19 Dec 22:48:56 22:55:49 27° 82° (E) 23:02:40 435.215
PCSat 19 Dec 22:48:57 22:54:16 52° 56° (NE) 22:59:32 145.827
ESTCUBE 1 19 Dec 22:52:14 22:56:44 64° 259° (WSW) 23:01:16 437.505/2401.250
VELOX 1 19 Dec 22:54:28 22:58:02 24° 265° (W) 23:01:38 145.980
POPSAT HIP 1 19 Dec 22:57:09 23:01:20 53° 100° (E) 23:05:31 437.405
ZACube-1 19 Dec 22:58:11 22:59:54 12° 270° (W) 23:01:38 437.345
DANDE 19 Dec 23:03:48 23:07:05 13° 279° (W) 23:10:31 436.750
BEESAT 2 19 Dec 23:13:22 23:17:13 36° 245° (WSW) 23:21:00 435.950
UNISAT 6 19 Dec 23:13:34 23:18:15 66° 286° (WNW) 23:22:56 437.425
TISAT 1 19 Dec 23:21:10 23:25:19 63° 74° (ENE) 23:29:29 437.305
SPROUT 19 Dec 23:21:19 23:25:30 57° 74° (ENE) 23:29:42 437.525
DUCHIFAT 1 19 Dec 23:25:40 23:29:55 72° 285° (WNW) 23:34:09 145.980
BUGSAT 1 19 Dec 23:29:23 23:33:27 81° 284° (WNW) 23:37:31 437.445
QB50P2 19 Dec 23:38:37 23:42:45 50° 287° (WNW) 23:46:53 145.880/145.840
SWISSCUBE 19 Dec 23:42:30 23:45:56 20° 64° (ENE) 23:49:22 437.505
ITUPSAT 1 19 Dec 23:42:48 23:46:03 18° 63° (ENE) 23:49:18 437.325
ANTELSAT 19 Dec 23:45:49 23:49:59 32° 291° (WNW) 23:54:08 437.575/2403.000
POLYITAN 1 19 Dec 23:47:12 23:51:13 41° 289° (WNW) 23:55:15 437.675
CUBEBUG 1 19 Dec 23:47:16 23:50:12 18° 267° (W) 23:53:08 437.445
NANOSAT C BR1 19 Dec 23:50:20 23:54:16 38° 289° (WNW) 23:58:13 145.865
AUBIESAT-1 19 Dec 23:55:20 23:58:31 18° 58° (ENE) 00:01:43 437.475
QB50P1 20 Dec 00:04:51 00:08:27 27° 291° (WNW) 00:12:02 145.935-145.965
BEESAT 20 Dec 00:06:47 00:10:58 31° 68° (ENE) 00:15:11 436.000
AIST 2 20 Dec 00:14:35 00:17:38 19° 249° (WSW) 00:20:39 435.215
M-CUBED/EXP-1 PRIME 20 Dec 00:18:58 00:23:12 31° 63° (ENE) 00:27:30 437.505
TIGRISAT 20 Dec 00:23:10 00:25:48 15° 297° (WNW) 00:28:27 435.000
PCSat 20 Dec 00:33:11 00:37:17 22° 253° (WSW) 00:41:21 145.827
POPSAT HIP 1 20 Dec 00:34:32 00:36:48 14° 296° (WNW) 00:39:04 437.405
Oscar 19 20 Dec 00:35:33 00:38:46 16° 91° (E) 00:41:57 437.125/150
YUBILEINY 20 Dec 00:43:13 00:51:53 65° 281° (W) 01:00:34 435.215
SPROUT 20 Dec 01:00:14 01:01:56 12° 270° (W) 01:03:39 437.525
TISAT 1 20 Dec 01:00:35 01:01:32 11° 270° (W) 01:02:30 437.305
O/OREOS (USA 219) 20 Dec 01:04:32 01:08:59 84° 292° (WNW) 01:13:28 437.305
SWISSCUBE 20 Dec 01:18:50 01:23:27 46° 261° (W) 01:28:05 437.505
ITUPSAT 1 20 Dec 01:18:51 01:23:32 51° 260° (W) 01:28:14 437.325
STARS 20 Dec 01:23:23 01:26:58 25° 67° (ENE) 01:30:34 437.465
KKS-1 20 Dec 01:24:37 01:28:42 38° 70° (ENE) 01:32:49 437.445
AUBIESAT-1 20 Dec 01:28:11 01:32:56 63° 254° (WSW) 01:37:49 437.475
BEESAT 20 Dec 01:44:41 01:48:47 28° 264° (W) 01:52:54 436.000
M-CUBED/EXP-1 PRIME 20 Dec 01:53:46 01:58:05 33° 259° (W) 02:02:30 437.505
Oscar 19 20 Dec 02:13:22 02:18:30 61° 287° (WNW) 02:23:36 437.125/150
VERMONT LUNAR 20 Dec 02:14:00 02:14:54 11° 145° (SE) 02:15:49 437.305
Gurwin Techsat 1B 20 Dec 02:17:41 02:22:31 35° 97° (E) 02:27:19 435.225
ITAMSAT 1 20 Dec 02:27:10 02:32:20 68° 102° (ESE) 02:37:29 435.822/435.867
HORYU 2 20 Dec 02:46:40 02:50:20 24° 95° (E) 02:53:58 437.375
YUBILEINY 20 Dec 02:47:17 02:50:39 13° 304° (NW) 02:54:02 435.215
AO-7 20 Dec 02:59:17 03:04:42 18° 91° (E) 03:10:05 29.400- 29.500
STARS 20 Dec 02:59:30 03:03:19 29° 264° (W) 03:07:11 437.465
KKS-1 20 Dec 03:02:17 03:05:28 19° 266° (W) 03:08:41 437.445
VERMONT LUNAR 20 Dec 03:49:19 03:52:39 40° 160° (SSE) 03:55:59 437.305
Gurwin Techsat 1B 20 Dec 03:57:48 04:02:22 30° 293° (WNW) 04:06:55 435.225
AIST 1 20 Dec 03:59:23 04:03:39 70° 264° (W) 04:07:52
PHONESAT 2.4 20 Dec 03:59:36 04:02:55 34° 158° (SSE) 04:06:15 2401.200-2431.200
MOZHAYETS 4 20 Dec 04:04:26 04:09:00 60° 74° (ENE) 04:13:36
ITAMSAT 1 20 Dec 04:08:12 04:11:15 16° 299° (WNW) 04:14:18 435.822/435.867
HORYU 2 20 Dec 04:22:59 04:27:01 33° 291° (WNW) 04:31:02 437.375
